Flag for Germany Past Weather in Königs Wusterhausen, Brandenburg, Germany — Yesterday and Last 2 Weeks

Now
90 °F

Passing clouds.


Feels Like: 93 °F
Forecast: 60 / 74 °F
Wind: 7 mph from Southwest

Location: Berlin-Schoenefeld

Current Time: Jun 25, 2016 at 2:36:00 PM

Latest Report: Jun 25, 2016 at 2:20 PM


Visibility: N/A

Pressure: 29.74 "Hg

Humidity: 49%

Dew Point: 68 °F

Location of Königs WusterhausenLocation

Past Weather in Königs Wusterhausen — Graph

°F

Königs Wusterhausen Temperature Yesterday

Maximum temperature yesterday: 93 °F (at 2:50 PM)
Minimum temperature yesterday: 66 °F (at 5:20 AM)
Average temperature yesterday: 81 °F

High & Low Weather Summary for the Past Weeks

 TemperatureHumidityPressure
High93 °F (Jun 24, 2:50 PM)100% (Jun 13, 6:50 AM)30.24 "Hg (Jun 13, 6:50 AM)
Low48 °F (Jun 20, 4:20 AM)23% (Jun 11, 5:20 PM)29.47 "Hg (Jun 14, 4:20 PM)
Average65 °F71%29.87 "Hg
* Reported Jun 10 1:20 PM — Jun 25 1:20 PM, Königs Wusterhausen, Weather by CustomWeather, © 2016

Note: Actual official high and low records may vary slightly from our data, if they occured in-between our weather recording intervals... More about our weather records

Advertising

Königs Wusterhausen Weather History for the Previous 24 Hours

Scroll right to see more
 ConditionsComfort  
Time TempWeatherWind HumidityBarometerVisibility
1:20 PM
Sat, Jun 25
88 °FPassing clouds.8 mph49%29.80 "HgN/A
12:50 PM90 °FPassing clouds.8 mph49%29.80 "HgN/A
12:20 PM88 °FPassing clouds.6 mph52%29.80 "HgN/A
11:50 AM88 °FPassing clouds.6 mph52%29.80 "HgN/A
11:20 AM86 °FPassing clouds.3 mph55%29.83 "HgN/A
10:50 AM84 °FPassing clouds.6 mph58%29.83 "HgN/A
10:20 AM82 °FPassing clouds.7 mph58%29.83 "HgN/A
9:50 AM81 °FPassing clouds.3 mph62%29.86 "HgN/A
9:20 AM79 °FPassing clouds.5 mph65%29.86 "HgN/A
8:50 AM79 °FPassing clouds.3 mph61%29.86 "HgN/A
8:20 AM77 °FPassing clouds.6 mph65%29.86 "HgN/A
7:50 AM75 °FSunny.8 mph69%29.86 "Hg10 mi
7:20 AM73 °FPassing clouds.5 mph74%29.86 "HgN/A
6:50 AM72 °FSunny.6 mph78%29.89 "Hg10 mi
6:20 AM70 °FSunny.3 mph83%29.89 "Hg10 mi
5:50 AM68 °FSunny.2 mph88%29.89 "Hg10 mi
5:20 AM68 °FClear.6 mph88%29.89 "Hg10 mi
4:50 AM68 °FClear.7 mph88%29.89 "Hg10 mi
4:20 AM68 °FClear.7 mph88%29.89 "Hg10 mi
3:50 AM68 °FClear.7 mph83%29.92 "Hg10 mi
3:20 AM70 °FClear.7 mph83%29.92 "Hg10 mi
2:50 AM70 °FClear.6 mph83%29.92 "Hg10 mi
2:20 AM70 °FClear.6 mph83%29.95 "Hg10 mi
1:50 AM72 °FClear.6 mph78%29.95 "Hg10 mi
1:20 AM72 °FClear.5 mph73%29.95 "Hg10 mi
12:50 AM72 °FClear.3 mph73%29.95 "Hg10 mi
12:20 AM72 °FClear.5 mph73%29.98 "Hg10 mi
11:50 PM
Fri, Jun 24
73 °FPassing clouds.6 mph69%29.98 "HgN/A
11:20 PM75 °FClear.8 mph65%29.98 "Hg10 mi
10:50 PM77 °FClear.8 mph61%29.98 "Hg10 mi
10:20 PM77 °FSunny.8 mph61%29.98 "Hg10 mi
9:50 PM77 °FSunny.12 mph57%29.98 "Hg10 mi
9:20 PM81 °FPassing clouds.17 mph51%29.98 "HgN/A
8:50 PM84 °FSunny.No wind40%29.95 "Hg10 mi
8:20 PM86 °FSunny.2 mph38%29.95 "Hg10 mi
7:50 PM90 °FPassing clouds.3 mph33%29.95 "HgN/A
7:20 PM90 °FPassing clouds.7 mph31%29.95 "HgN/A
6:50 PM91 °FPassing clouds.6 mph30%29.95 "HgN/A
6:20 PM91 °FPassing clouds.6 mph28%29.95 "HgN/A
5:50 PM93 °FPassing clouds.6 mph26%29.95 "HgN/A
5:20 PM93 °FPassing clouds.5 mph30%29.95 "HgN/A
4:50 PM93 °FPassing clouds.6 mph30%29.98 "HgN/A
4:20 PM93 °FPassing clouds.6 mph28%29.98 "HgN/A
3:50 PM93 °FSunny.5 mph32%29.98 "Hg10 mi
3:20 PM93 °FPassing clouds.7 mph30%29.98 "HgN/A
2:50 PM93 °FSunny.3 mph28%30.01 "Hg10 mi
2:20 PM91 °FSunny.2 mph36%30.01 "Hg10 mi
Weather by CustomWeather, © 2016

See weather overviewHow to use our weather pages